Location: ?
(35.4064°N, 139.3593°E)
Time: 19:57:38
(UTC+00:00)

Cosmos 1515 Rocket - Pass Details

Date: 18 April 2024
Orbit: 602 x 627 km, 82.5° (Epoch: 27 May)

Event Time Altitude Azimuth Distance (km) Brightness Sun altitude
Exits shadow 18:30:19 32° 199° (SSW) 1,088 4.4 -18.7°
Maximum altitude 18:32:21 73° 277° (W) 659 3.5 -18.4°
Drops below altitude 10° 18:36:48 10° 2° (N) 2,006 6.6 -17.6°
Sets 18:39:02 0° 5° (N) 2,914 7.5 -17.2°
